User: anonymous   Login
Location: Unspecified
(0.0000°N, 0.0000°E)
Time: 05:25:50
(UTC+00:00)
Language:

Vela 1A - Orbit

View from above orbital plane
View from above orbital plane
View from above satellite
View from above satellite

Ground track
Ground track

The orbit data is extracted from the following two-line orbital elements,

1 00692U 63039C   18139.63854529 -.00001127  00000-0  00000+0 0  9993
2 00692  28.7369 344.1996 5754760 207.4637   2.1778  0.22046696 44067
Epoch (UTC): 19 May 2018 15:19:30
Eccentricity: 0.5754760
inclination: 28.7369°
perigee height: 42758 km
apogee height: 175975 km
right ascension of ascending node: 344.1996°
argument of perigee: 207.4637°
revolutions per day: 0.22046696
mean anomaly at epoch: 2.1778°
orbit number at epoch: 4406

The dashed part of the orbit path shows where the satellite is in the earth's shadow,  

DLR